Weather History for KL38 - May, 2013

Change the Weather History Date:

Monday, May 27, 2013

  Actual Average (KBTR) Record (KBTR)
Temperature  
Mean Temperature 76 °F 78 °F  
Max Temperature 88 °F 89 °F 98 °F (1922)
Min Temperature 64 °F 68 °F 49 °F (1961)
Degree Days  
Heating Degree Days 0 0  
Month to date heating degree days 0  
Since 1 July heating degree days 1553  
Cooling Degree Days 11 13  
Month to date cooling degree days 279  
Year to date cooling degree days 510  
Growing Degree Days 26 (Base 50)    
Moisture  
Dew Point 68 °F    
Average Humidity 79    
Maximum Humidity 99    
Minimum Humidity 46    
Precipitation  
Precipitation 0.18 in 0.17 in 2.94 in (1948)
Month to date precipitation 4.22  
Year to date precipitation 23.85  
Snow  
Snow 0.00 in - - ()
Month to date snowfall  
Since 1 July snowfall  
Snow Depth -    
Sea Level Pressure  
Sea Level Pressure 30.07 in    
Wind  
Wind Speed 2 mph (SSE)    
Max Wind Speed 12 mph    
Max Gust Speed 16 mph    
Visibility 9 miles    
Events Rain , Thunderstorm    
T = Trace of Precipitation, MM = Missing Value Source: NWS Daily Summary

Daily Weather History Graph

Daily Weather History Graph

Search for Another Location

Airport or City:

Trip Planner

Search our weather history database for the weather conditions in past years. The results will help you decide how hot, cold, wet, or windy it might be!

Date:

Astronomy

May. 27, 2013 Rise Set
Actual Time 6:04 AM CDT 7:58 PM CDT
Civil Twilight 5:37 AM CDT 8:25 PM CDT
Nautical Twilight 5:04 AM CDT 8:57 PM CDT
Astronomical Twilight 4:30 AM CDT 9:32 PM CDT
Moon 10:42 PM CDT (5/27) 8:38 AM CDT (5/27)
Length of Visible Light 14h 47m
Length of Day
13h 54m
Waning Gibbous, 91% of the Moon is Illuminated
May 27
Waning Gibbous
May 31
Last Quarter
Jun 8
New
Jun 16
First Quarter
Jun 23
Full

Hourly Weather History & Observations

Time (CDT) Temp. Heat Index Dew Point Humidity Pressure Visibility Wind Dir Wind Speed Gust Speed Precip Events Conditions
12:15 AM 68.4 °F - 66.4 °F 93% 30.11 in 10.0 mi Calm Calm - N/A   Clear
12:35 AM 68.0 °F - 66.2 °F 94% 30.11 in 10.0 mi Calm Calm - N/A   Clear
12:55 AM 69.4 °F - 66.6 °F 91% 30.10 in 10.0 mi Calm Calm - N/A   Clear
1:15 AM 67.6 °F - 66.2 °F 95% 30.10 in 10.0 mi Calm Calm - N/A   Clear
1:35 AM 67.3 °F - 66.0 °F 96% 30.09 in 10.0 mi Calm Calm - N/A   Clear
1:55 AM 67.3 °F - 66.4 °F 97% 30.09 in 10.0 mi Calm Calm - N/A   Clear
2:15 AM 67.1 °F - 66.2 °F 97% 30.08 in 10.0 mi Calm Calm - N/A   Clear
2:35 AM 66.7 °F - 66.2 °F 98% 30.09 in 10.0 mi Calm Calm - N/A   Clear
2:55 AM 67.1 °F - 65.8 °F 96% 30.08 in 10.0 mi Calm Calm - N/A   Clear
3:15 AM 66.6 °F - 66.2 °F 99% 30.08 in 5.0 mi Calm Calm - N/A   Clear
3:35 AM 66.2 °F - 65.7 °F 98% 30.08 in 7.0 mi Calm Calm - N/A   Clear
3:55 AM 66.4 °F - 65.8 °F 98% 30.08 in 10.0 mi Calm Calm - N/A   Clear
4:15 AM 65.3 °F - 64.8 °F 98% 30.08 in 4.0 mi Calm Calm - N/A   Clear
4:35 AM 65.8 °F - 65.3 °F 98% 30.08 in 10.0 mi Calm Calm - N/A   Clear
4:55 AM 65.7 °F - 65.3 °F 99% 30.08 in 10.0 mi Calm Calm - N/A   Clear
5:15 AM 65.3 °F - 64.8 °F 98% 30.08 in 7.0 mi Calm Calm - N/A   Clear
5:35 AM 65.3 °F - 65.1 °F 99% 30.08 in 7.0 mi Calm Calm - N/A   Clear
5:55 AM 65.3 °F - 64.9 °F 99% 30.09 in 7.0 mi Calm Calm - N/A   Clear
6:15 AM 65.3 °F - 64.9 °F 99% 30.09 in 7.0 mi Calm Calm - N/A   Clear
6:35 AM 64.8 °F - 64.6 °F 99% 30.10 in 5.0 mi Calm Calm - N/A   Clear
6:55 AM 66.2 °F - 65.5 °F 98% 30.10 in 10.0 mi Calm Calm - N/A   Clear
7:15 AM 68.9 °F - 67.3 °F 95% 30.11 in 10.0 mi Calm Calm - N/A   Clear
7:35 AM 70.7 °F - 68.0 °F 91% 30.11 in 10.0 mi Calm Calm - N/A   Clear
7:55 AM 73.6 °F - 70.0 °F 88% 30.11 in 10.0 mi Calm Calm - N/A   Clear
8:15 AM 75.7 °F - 69.6 °F 81% 30.11 in 10.0 mi ESE 4.6 mph - N/A   Clear
8:35 AM 76.8 °F - 68.4 °F 75% 30.12 in 10.0 mi ESE 3.5 mph - N/A   Clear
8:55 AM 77.9 °F - 67.3 °F 70% 30.12 in 10.0 mi ESE 4.6 mph - N/A   Clear
9:15 AM 79.9 °F - 65.3 °F 61% 30.12 in 10.0 mi SE 4.6 mph - N/A   Clear
9:35 AM 80.4 °F 82.3 °F 65.3 °F 60% 30.12 in 10.0 mi ESE 5.8 mph - N/A   Clear
9:55 AM 80.8 °F 82.8 °F 65.7 °F 60% 30.11 in 10.0 mi SSE 11.5 mph - N/A   Clear
10:15 AM 81.1 °F 82.9 °F 65.3 °F 58% 30.11 in 10.0 mi SSE 8.1 mph - N/A   Clear
10:35 AM 81.7 °F 83.8 °F 66.2 °F 59% 30.11 in 10.0 mi South 8.1 mph - N/A   Clear
10:55 AM 82.2 °F 84.6 °F 66.6 °F 59% 30.11 in 10.0 mi South 8.1 mph - N/A   Clear
11:15 AM 82.8 °F 84.9 °F 66.0 °F 57% 30.11 in 10.0 mi SSE 9.2 mph - N/A   Clear
11:35 AM 83.7 °F 86.0 °F 66.4 °F 56% 30.11 in 10.0 mi SSE 8.1 mph - N/A   Clear
11:55 AM 84.0 °F 86.3 °F 66.4 °F 55% 30.11 in 10.0 mi SE 6.9 mph - N/A   Clear
12:15 PM 84.2 °F 86.6 °F 66.2 °F 55% 30.10 in 10.0 mi SSE 5.8 mph - N/A   Clear
12:35 PM 85.3 °F 87.9 °F 67.1 °F 54% 30.10 in 10.0 mi ESE 6.9 mph - N/A   Scattered Clouds
12:55 PM 84.9 °F 87.6 °F 66.9 °F 55% 30.09 in 10.0 mi SE 8.1 mph - N/A   Scattered Clouds
1:15 PM 85.1 °F 88.2 °F 67.6 °F 56% 30.08 in 10.0 mi SE 6.9 mph - N/A   Scattered Clouds
1:35 PM 85.8 °F 88.8 °F 67.6 °F 54% 30.08 in 10.0 mi SE 6.9 mph - N/A   Clear
1:55 PM 86.9 °F 89.6 °F 66.7 °F 51% 30.07 in 10.0 mi South 6.9 mph - N/A   Clear
2:15 PM 86.5 °F 88.7 °F 65.8 °F 50% 30.06 in 10.0 mi South 8.1 mph - N/A   Clear
2:35 PM 88.0 °F 90.3 °F 66.0 °F 48% 30.05 in 10.0 mi SE 9.2 mph - N/A   Scattered Clouds
2:55 PM 87.6 °F 89.7 °F 65.8 °F 48% 30.04 in 10.0 mi South 10.4 mph - N/A   Scattered Clouds
3:15 PM 88.2 °F 90.6 °F 66.0 °F 48% 30.03 in 10.0 mi South 6.9 mph - N/A   Scattered Clouds
3:35 PM 86.9 °F 88.6 °F 65.1 °F 48% 30.03 in 10.0 mi South 6.9 mph - N/A   Scattered Clouds
3:55 PM 88.0 °F 90.0 °F 65.3 °F 47% 30.02 in 10.0 mi South 5.8 mph - N/A   Scattered Clouds
4:15 PM 88.3 °F 90.2 °F 65.3 °F 46% 30.02 in 10.0 mi South 8.1 mph - N/A   Mostly Cloudy
4:35 PM 88.3 °F 90.2 °F 65.3 °F 46% 30.02 in 10.0 mi SSW 9.2 mph - N/A   Scattered Clouds
4:55 PM 87.6 °F 90.1 °F 66.0 °F 49% 30.02 in 10.0 mi South 9.2 mph - N/A   Scattered Clouds
5:15 PM 87.3 °F 90.9 °F 68.2 °F 53% 30.01 in 10.0 mi SSW 10.4 mph - N/A   Scattered Clouds
5:35 PM 83.5 °F 87.2 °F 69.4 °F 62% 30.01 in 10.0 mi South 10.4 mph - N/A   Scattered Clouds
5:55 PM 79.0 °F - 71.2 °F 77% 30.02 in 7.0 mi SW 11.5 mph - 0.01 in Rain Rain
6:15 PM 76.8 °F - 72.5 °F 86% 30.02 in 10.0 mi SSW 4.6 mph - 0.01 in Rain , Thunderstorm Light Thunderstorms and Rain
6:35 PM 77.0 °F - 71.8 °F 84% 30.02 in 10.0 mi SSW 10.4 mph 16.1 mph 0.01 in   Mostly Cloudy
6:55 PM 75.4 °F - 71.6 °F 88% 30.02 in 2.5 mi SSE 6.9 mph - 0.13 in Rain Heavy Rain
7:15 PM 76.3 °F - 72.7 °F 89% 30.02 in 5.0 mi SSE 3.5 mph - 0.03 in Rain Rain
7:35 PM 76.8 °F - 71.8 °F 84% 30.02 in 10.0 mi SSE 4.6 mph - 0.03 in   Mostly Cloudy
7:55 PM 75.2 °F - 72.7 °F 92% 30.02 in 10.0 mi Calm Calm - 0.04 in   Mostly Cloudy
8:15 PM 75.2 °F - 72.0 °F 90% 30.03 in 10.0 mi SW 3.5 mph - N/A   Mostly Cloudy
8:35 PM 74.3 °F - 72.0 °F 92% 30.03 in 10.0 mi Calm Calm - N/A   Mostly Cloudy
8:55 PM 73.8 °F - 72.1 °F 95% 30.03 in 10.0 mi Calm Calm - N/A   Scattered Clouds
9:15 PM 73.8 °F - 72.1 °F 95% 30.03 in 10.0 mi Calm Calm - N/A   Mostly Cloudy
9:35 PM 73.4 °F - 72.3 °F 96% 30.03 in 7.0 mi Calm Calm - N/A   Scattered Clouds
9:55 PM 72.7 °F - 71.4 °F 96% 30.04 in 10.0 mi Calm Calm - N/A   Scattered Clouds
10:15 PM 73.4 °F - 70.2 °F 90% 30.05 in 10.0 mi Calm Calm - N/A   Mostly Cloudy
10:35 PM 72.9 °F - 69.8 °F 90% 30.05 in 10.0 mi Calm Calm - N/A   Mostly Cloudy
10:55 PM 72.7 °F - 69.8 °F 91% 30.05 in 10.0 mi Calm Calm - N/A   Scattered Clouds
11:15 PM 71.1 °F - 69.8 °F 96% 30.05 in 10.0 mi Calm Calm - N/A   Clear
11:35 PM 70.9 °F - 69.8 °F 96% 30.06 in 10.0 mi Calm Calm - N/A   Clear
11:55 PM 70.3 °F - 69.4 °F 97% 30.07 in 7.0 mi Calm Calm - N/A   Clear